QFA55 PASC-PAOM

Flight info

Callsign QFA55
Flight time 1h 32m
Altitude 36000
Route OTZ J123 OME
Aircraft B738/M-SDE2E3FGHIRWXY/LB1

Departure

Time 2026-04-14 10:19
Airport Deadhorse Airport (PASC)

Arrival

Time 2026-04-14 11:51
Airport Nome Airport (PAOM)
Time Latitude Longitude Altitude Speed Heading
2026-04-14 09:54 70.19814 -148.46296 69 ft 0 kts 83°
2026-04-14 10:07 70.19814 -148.46295 69 ft 0 kts 83°
2026-04-14 10:08 70.19814 -148.46294 69 ft 0 kts 83°
2026-04-14 10:10 70.19814 -148.46293 69 ft 0 kts 83°
2026-04-14 10:11 70.19814 -148.46292 69 ft 0 kts 83°
2026-04-14 10:13 70.19815 -148.46272 69 ft 3 kts 83°
2026-04-14 10:13 70.19814 -148.46176 69 ft 7 kts 96°
2026-04-14 10:13 70.19806 -148.45959 69 ft 14 kts 95°
2026-04-14 10:14 70.19818 -148.45624 69 ft 18 kts 75°
2026-04-14 10:14 70.19800 -148.45332 69 ft 16 kts 167°
2026-04-14 10:14 70.19734 -148.45560 69 ft 18 kts 256°
2026-04-14 10:14 70.19703 -148.45925 69 ft 19 kts 256°
2026-04-14 10:15 70.19667 -148.46323 69 ft 21 kts 255°
2026-04-14 10:15 70.19629 -148.46745 69 ft 21 kts 254°
2026-04-14 10:15 70.19587 -148.47186 69 ft 23 kts 255°
2026-04-14 10:15 70.19546 -148.47659 69 ft 25 kts 254°
2026-04-14 10:16 70.19501 -148.48154 69 ft 25 kts 254°
2026-04-14 10:16 70.19457 -148.48649 69 ft 25 kts 256°
2026-04-14 10:16 70.19407 -148.49079 69 ft 19 kts 214°
2026-04-14 10:16 70.19294 -148.49031 69 ft 16 kts 165°
2026-04-14 10:17 70.19257 -148.48934 69 ft 3 kts 75°
2026-04-14 10:17 70.19258 -148.48930 69 ft 0 kts 75°
2026-04-14 10:17 70.19258 -148.48929 69 ft 0 kts 75°
2026-04-14 10:18 70.19337 -148.48060 70 ft 75 kts 75°
2026-04-14 10:18 70.19527 -148.45964 71 ft 134 kts 73°
2026-04-14 10:18 70.19768 -148.43183 583 ft 132 kts 74°
2026-04-14 10:19 70.19973 -148.40615 1250 ft 134 kts 76°
2026-04-14 10:19 70.20206 -148.37670 1573 ft 159 kts 74°
2026-04-14 10:19 70.20495 -148.34399 2075 ft 172 kts 74°
2026-04-14 10:19 70.20828 -148.30619 2214 ft 207 kts 75°
2026-04-14 10:20 70.21199 -148.26294 2638 ft 225 kts 74°
2026-04-14 10:20 70.21802 -148.21997 3339 ft 231 kts 53°
2026-04-14 10:20 70.22982 -148.18768 4093 ft 234 kts 28°
2026-04-14 10:20 70.24509 -148.17298 4856 ft 237 kts
2026-04-14 10:21 70.26146 -148.17840 5613 ft 241 kts 341°
2026-04-14 10:21 70.27490 -148.20865 6199 ft 251 kts 303°
2026-04-14 10:21 70.27970 -148.25798 6915 ft 256 kts 268°
2026-04-14 10:21 70.27474 -148.30887 7659 ft 262 kts 248°
2026-04-14 10:22 70.26952 -148.34206 8151 ft 265 kts 244°
2026-04-14 10:22 70.26086 -148.39067 8876 ft 269 kts 243°
2026-04-14 10:22 70.25199 -148.43962 9595 ft 272 kts 244°
2026-04-14 10:22 70.24326 -148.48972 10236 ft 280 kts 245°
2026-04-14 10:23 70.23436 -148.54280 10582 ft 297 kts 245°
2026-04-14 10:23 70.22498 -148.59913 10905 ft 314 kts 245°
2026-04-14 10:23 70.21505 -148.65824 11247 ft 329 kts 245°
2026-04-14 10:23 70.20465 -148.71931 11851 ft 336 kts 245°
2026-04-14 10:24 70.19402 -148.78124 12552 ft 340 kts 245°
2026-04-14 10:24 70.18326 -148.84384 13291 ft 344 kts 245°
2026-04-14 10:24 70.17241 -148.90702 14033 ft 347 kts 245°
2026-04-14 10:24 70.16146 -148.97068 14778 ft 351 kts 245°
2026-04-14 10:25 70.15036 -149.03499 15536 ft 354 kts 245°
2026-04-14 10:25 70.13912 -149.09981 16280 ft 358 kts 245°
2026-04-14 10:25 70.12775 -149.16520 17034 ft 361 kts 245°
2026-04-14 10:25 70.11623 -149.23115 17758 ft 364 kts 245°
2026-04-14 10:26 70.10461 -149.29752 18475 ft 368 kts 245°
2026-04-14 10:26 70.09284 -149.36456 19183 ft 370 kts 245°
2026-04-14 10:26 70.08081 -149.43286 19886 ft 373 kts 245°
2026-04-14 10:26 70.06883 -149.50063 20563 ft 376 kts 245°
2026-04-14 10:27 70.05672 -149.56889 21217 ft 379 kts 245°
2026-04-14 10:27 70.04449 -149.63755 21849 ft 382 kts 245°
2026-04-14 10:27 70.03217 -149.70655 22468 ft 384 kts 245°
2026-04-14 10:27 70.01976 -149.77587 23064 ft 386 kts 245°
2026-04-14 10:28 70.00722 -149.84561 23647 ft 388 kts 245°
2026-04-14 10:28 69.99458 -149.91567 24224 ft 390 kts 245°
2026-04-14 10:28 69.98186 -149.98596 24724 ft 394 kts 245°
2026-04-14 10:28 69.96897 -150.05693 25180 ft 398 kts 245°
2026-04-14 10:29 69.95594 -150.12845 25612 ft 402 kts 244°
2026-04-14 10:29 69.94271 -150.20082 26023 ft 406 kts 244°
2026-04-14 10:29 69.92933 -150.27374 26424 ft 410 kts 244°
2026-04-14 10:29 69.91581 -150.34712 26814 ft 414 kts 244°
2026-04-14 10:30 69.90212 -150.42120 27176 ft 418 kts 244°
2026-04-14 10:30 69.88826 -150.49590 27538 ft 421 kts 244°
2026-04-14 10:30 69.87427 -150.57110 27885 ft 424 kts 244°
2026-04-14 10:30 69.86015 -150.64667 28222 ft 428 kts 244°
2026-04-14 10:31 69.84586 -150.72285 28539 ft 431 kts 243°
2026-04-14 10:31 69.83146 -150.79936 28845 ft 434 kts 243°
2026-04-14 10:31 69.81693 -150.87630 29137 ft 437 kts 243°
2026-04-14 10:31 69.80227 -150.95362 29413 ft 440 kts 243°
2026-04-14 10:32 69.78750 -151.03123 29678 ft 442 kts 243°
2026-04-14 10:32 69.77251 -151.10979 29729 ft 450 kts 243°
2026-04-14 10:32 69.75727 -151.18931 29862 ft 454 kts 243°
2026-04-14 10:32 69.74191 -151.26908 30060 ft 456 kts 243°
2026-04-14 10:33 69.72644 -151.34912 30277 ft 457 kts 243°
2026-04-14 10:33 69.71090 -151.42921 30516 ft 458 kts 243°
2026-04-14 10:33 69.69530 -151.50938 30742 ft 459 kts 242°
2026-04-14 10:33 69.67963 -151.58955 30965 ft 460 kts 242°
2026-04-14 10:34 69.64811 -151.74999 31402 ft 462 kts 242°
2026-04-14 10:34 69.63226 -151.83017 31632 ft 462 kts 242°
2026-04-14 10:34 69.61635 -151.91032 31840 ft 462 kts 242°
2026-04-14 10:35 69.60040 -151.99042 32065 ft 463 kts 242°
2026-04-14 10:35 69.58440 -152.07047 32262 ft 463 kts 242°
2026-04-14 10:35 69.56832 -152.15059 32480 ft 463 kts 242°
2026-04-14 10:35 69.55223 -152.23049 32678 ft 464 kts 242°
2026-04-14 10:36 69.53607 -152.31038 32884 ft 464 kts 242°
2026-04-14 10:36 69.51990 -152.39008 33086 ft 464 kts 241°
2026-04-14 10:36 69.50368 -152.46969 33271 ft 464 kts 241°
2026-04-14 10:36 69.48742 -152.54920 33469 ft 464 kts 241°
2026-04-14 10:37 69.47113 -152.62858 33661 ft 464 kts 241°
2026-04-14 10:37 69.45477 -152.70798 33833 ft 465 kts 241°
2026-04-14 10:37 69.43841 -152.78713 34006 ft 465 kts 241°
2026-04-14 10:37 69.42195 -152.86644 34194 ft 464 kts 241°
2026-04-14 10:38 69.40549 -152.94542 34371 ft 464 kts 241°
2026-04-14 10:38 69.38896 -153.02447 34533 ft 465 kts 241°
2026-04-14 10:38 69.37241 -153.10331 34692 ft 465 kts 240°
2026-04-14 10:38 69.35584 -153.18200 34851 ft 465 kts 240°
2026-04-14 10:39 69.33920 -153.26069 35002 ft 465 kts 240°
2026-04-14 10:39 69.32254 -153.33918 35152 ft 465 kts 240°
2026-04-14 10:39 69.30584 -153.41760 35302 ft 466 kts 240°
2026-04-14 10:39 69.28911 -153.49586 35446 ft 466 kts 240°
2026-04-14 10:40 69.27231 -153.57415 35587 ft 466 kts 240°
2026-04-14 10:40 69.25548 -153.65229 35728 ft 466 kts 240°
2026-04-14 10:40 69.23840 -153.73136 35868 ft 466 kts 240°
2026-04-14 10:40 69.22149 -153.80929 36001 ft 466 kts 240°
2026-04-14 10:41 69.20454 -153.88715 36127 ft 466 kts 240°
2026-04-14 10:41 69.17045 -154.04290 36202 ft 470 kts 240°
2026-04-14 10:42 69.13599 -154.19919 36202 ft 471 kts 239°
2026-04-14 10:42 69.10142 -154.35478 36199 ft 469 kts 239°
2026-04-14 10:43 69.06686 -154.50926 36197 ft 467 kts 239°
2026-04-14 10:43 69.03232 -154.66255 36192 ft 465 kts 239°
2026-04-14 10:44 68.99779 -154.81472 36197 ft 463 kts 239°
2026-04-14 10:44 68.96327 -154.96581 36239 ft 462 kts 239°
2026-04-14 10:45 68.92865 -155.11623 36250 ft 462 kts 239°
2026-04-14 10:45 68.89392 -155.26613 36249 ft 462 kts 239°
2026-04-14 10:46 68.85903 -155.41565 36244 ft 462 kts 238°
2026-04-14 10:46 68.82400 -155.56475 36239 ft 462 kts 238°
2026-04-14 10:47 68.78885 -155.71332 36234 ft 462 kts 238°
2026-04-14 10:47 68.75353 -155.86160 36230 ft 462 kts 238°
2026-04-14 10:48 68.71811 -156.00928 36227 ft 462 kts 238°
2026-04-14 10:48 68.68256 -156.15651 36220 ft 462 kts 238°
2026-04-14 10:49 68.64666 -156.30420 36212 ft 462 kts 238°
2026-04-14 10:49 68.61087 -156.45042 36215 ft 462 kts 238°
2026-04-14 10:50 68.57496 -156.59615 36216 ft 462 kts 237°
2026-04-14 10:50 68.53892 -156.74143 36211 ft 462 kts 237°
2026-04-14 10:51 68.50274 -156.88631 36206 ft 462 kts 237°
2026-04-14 10:51 68.46645 -157.03069 36202 ft 462 kts 237°
2026-04-14 10:52 68.42999 -157.17475 36193 ft 462 kts 237°
2026-04-14 10:52 68.39341 -157.31834 36171 ft 463 kts 237°
2026-04-14 10:53 68.35663 -157.46178 36161 ft 462 kts 237°
2026-04-14 10:53 68.31982 -157.60441 36150 ft 462 kts 237°
2026-04-14 10:54 68.28288 -157.74656 36145 ft 462 kts 236°
2026-04-14 10:54 68.24590 -157.88798 36144 ft 461 kts 236°
2026-04-14 10:55 68.20885 -158.02878 36156 ft 460 kts 236°
2026-04-14 10:55 68.17771 -158.14641 36159 ft 460 kts 236°
2026-04-14 10:56 68.14045 -158.28629 36153 ft 460 kts 236°
2026-04-14 10:56 68.10310 -158.42566 36149 ft 460 kts 236°
2026-04-14 10:57 68.06560 -158.56466 36151 ft 460 kts 236°
2026-04-14 10:57 68.02798 -158.70324 36148 ft 461 kts 235°
2026-04-14 10:58 67.99023 -158.84141 36144 ft 461 kts 235°
2026-04-14 10:58 67.95236 -158.97916 36142 ft 460 kts 235°
2026-04-14 10:59 67.91438 -159.11643 36140 ft 460 kts 235°
2026-04-14 10:59 67.87640 -159.25288 36139 ft 460 kts 235°
2026-04-14 11:00 67.83830 -159.38888 36138 ft 459 kts 235°
2026-04-14 11:00 67.80012 -159.52432 36136 ft 459 kts 234°
2026-04-14 11:01 67.76180 -159.65943 36131 ft 459 kts 234°
2026-04-14 11:01 67.72337 -159.79407 36130 ft 459 kts 234°
2026-04-14 11:02 67.68475 -159.92856 36130 ft 459 kts 234°
2026-04-14 11:02 67.64608 -160.06239 36132 ft 459 kts 234°
2026-04-14 11:03 67.60730 -160.19579 36134 ft 460 kts 234°
2026-04-14 11:03 67.56839 -160.32884 36134 ft 460 kts 234°
2026-04-14 11:04 67.52939 -160.46136 36132 ft 460 kts 234°
2026-04-14 11:04 67.49027 -160.59351 36131 ft 459 kts 234°
2026-04-14 11:05 67.45104 -160.72520 36130 ft 459 kts 234°
2026-04-14 11:05 67.41172 -160.85643 36131 ft 459 kts 234°
2026-04-14 11:06 67.37234 -160.98705 36130 ft 458 kts 234°
2026-04-14 11:06 67.33293 -161.11704 36127 ft 458 kts 233°
2026-04-14 11:07 67.29342 -161.24653 36124 ft 458 kts 233°
2026-04-14 11:07 67.25382 -161.37557 36120 ft 458 kts 233°
2026-04-14 11:08 67.21408 -161.50433 36119 ft 458 kts 233°
2026-04-14 11:08 67.17428 -161.63249 36117 ft 458 kts 233°
2026-04-14 11:09 67.13435 -161.76032 36115 ft 458 kts 233°
2026-04-14 11:09 67.09436 -161.88762 36113 ft 458 kts 233°
2026-04-14 11:10 67.03424 -162.07758 36111 ft 457 kts 233°
2026-04-14 11:10 66.99406 -162.20361 36109 ft 457 kts 233°
2026-04-14 11:11 66.95383 -162.32910 36108 ft 456 kts 233°
2026-04-14 11:11 66.91353 -162.45390 36106 ft 456 kts 233°
2026-04-14 11:12 66.86639 -162.56183 36120 ft 461 kts 213°
2026-04-14 11:12 66.80919 -162.63657 36113 ft 463 kts 208°
2026-04-14 11:13 66.75109 -162.70737 36107 ft 463 kts 208°
2026-04-14 11:13 66.69316 -162.77890 36108 ft 463 kts 208°
2026-04-14 11:14 66.63526 -162.85048 36110 ft 463 kts 208°
2026-04-14 11:14 66.57681 -162.92165 36113 ft 463 kts 208°
2026-04-14 11:15 66.51881 -162.99213 36117 ft 463 kts 208°
2026-04-14 11:15 66.46076 -163.06241 36123 ft 463 kts 208°
2026-04-14 11:16 66.40273 -163.13218 36129 ft 463 kts 208°
2026-04-14 11:16 66.34466 -163.20167 36134 ft 463 kts 208°
2026-04-14 11:17 66.28662 -163.27079 36134 ft 463 kts 208°
2026-04-14 11:17 66.22847 -163.33966 36131 ft 463 kts 208°
2026-04-14 11:18 66.19938 -163.37398 35732 ft 463 kts 208°
2026-04-14 11:18 66.17047 -163.40798 35172 ft 457 kts 208°
2026-04-14 11:18 66.14192 -163.44144 34641 ft 451 kts 208°
2026-04-14 11:18 66.11375 -163.47441 34121 ft 446 kts 208°
2026-04-14 11:19 66.08539 -163.50764 33606 ft 457 kts 208°
2026-04-14 11:19 66.05671 -163.54113 33081 ft 458 kts 208°
2026-04-14 11:19 66.02781 -163.57472 32551 ft 455 kts 208°
2026-04-14 11:19 65.99943 -163.60750 32032 ft 447 kts 208°
2026-04-14 11:20 65.97154 -163.63964 31522 ft 439 kts 209°
2026-04-14 11:20 65.94417 -163.67120 31021 ft 431 kts 209°
2026-04-14 11:20 65.91717 -163.70234 30528 ft 426 kts 209°
2026-04-14 11:20 65.89015 -163.73344 30034 ft 421 kts 209°
2026-04-14 11:21 65.86378 -163.76367 29552 ft 417 kts 209°
2026-04-14 11:21 65.83761 -163.79358 29073 ft 414 kts 208°
2026-04-14 11:21 65.81165 -163.82316 28599 ft 410 kts 208°
2026-04-14 11:21 65.78594 -163.85242 28129 ft 406 kts 208°
2026-04-14 11:22 65.76043 -163.88138 27663 ft 402 kts 208°
2026-04-14 11:22 65.73521 -163.90997 27203 ft 398 kts 207°
2026-04-14 11:22 65.71016 -163.93830 26745 ft 395 kts 207°
2026-04-14 11:22 65.68536 -163.96628 26293 ft 392 kts 207°
2026-04-14 11:23 65.66076 -163.99398 25848 ft 388 kts 207°
2026-04-14 11:23 65.63642 -164.02132 25415 ft 385 kts 207°
2026-04-14 11:23 65.61220 -164.04847 24975 ft 381 kts 206°
2026-04-14 11:23 65.58823 -164.07530 24540 ft 378 kts 206°
2026-04-14 11:24 65.56446 -164.10183 24107 ft 375 kts 206°
2026-04-14 11:24 65.54088 -164.12811 23677 ft 372 kts 206°
2026-04-14 11:24 65.51745 -164.15416 23251 ft 370 kts 206°
2026-04-14 11:24 65.49415 -164.18003 22826 ft 367 kts 206°
2026-04-14 11:25 65.47102 -164.20565 22405 ft 365 kts 206°
2026-04-14 11:25 65.44805 -164.23104 21986 ft 363 kts 206°
2026-04-14 11:25 65.42518 -164.25628 21570 ft 360 kts 206°
2026-04-14 11:25 65.40245 -164.28131 21156 ft 358 kts 206°
2026-04-14 11:26 65.37986 -164.30615 20744 ft 356 kts 206°
2026-04-14 11:26 65.35742 -164.33075 20336 ft 354 kts 206°
2026-04-14 11:26 65.33510 -164.35519 19929 ft 352 kts 206°
2026-04-14 11:26 65.31289 -164.37947 19525 ft 350 kts 206°
2026-04-14 11:27 65.29084 -164.40353 19123 ft 348 kts 206°
2026-04-14 11:27 65.26892 -164.42740 18723 ft 345 kts 206°
2026-04-14 11:27 65.24711 -164.45111 18326 ft 343 kts 206°
2026-04-14 11:27 65.22542 -164.47464 17930 ft 342 kts 206°
2026-04-14 11:28 65.20388 -164.49797 17538 ft 339 kts 206°
2026-04-14 11:28 65.18932 -164.51371 17223 ft 340 kts 206°
2026-04-14 11:28 65.16776 -164.53700 16749 ft 340 kts 206°
2026-04-14 11:28 65.13931 -164.56766 16200 ft 338 kts 206°
2026-04-14 11:29 65.12484 -164.58322 15932 ft 337 kts 206°
2026-04-14 11:29 65.10356 -164.60606 15542 ft 335 kts 206°
2026-04-14 11:29 65.08239 -164.62876 15153 ft 332 kts 206°
2026-04-14 11:29 65.06145 -164.65118 14774 ft 329 kts 205°
2026-04-14 11:30 65.04063 -164.67342 14395 ft 328 kts 205°
2026-04-14 11:30 65.01986 -164.69558 14017 ft 326 kts 205°
2026-04-14 11:30 64.99920 -164.71758 13642 ft 325 kts 205°
2026-04-14 11:30 64.97861 -164.73947 13268 ft 324 kts 205°
2026-04-14 11:31 64.95813 -164.76120 12896 ft 322 kts 205°
2026-04-14 11:31 64.93768 -164.78286 12524 ft 321 kts 205°
2026-04-14 11:31 64.91734 -164.80437 12154 ft 320 kts 205°
2026-04-14 11:31 64.89710 -164.82575 11786 ft 318 kts 205°
2026-04-14 11:32 64.87691 -164.84703 11420 ft 318 kts 205°
2026-04-14 11:32 64.85675 -164.86824 11054 ft 317 kts 205°
2026-04-14 11:32 64.83663 -164.88938 10688 ft 316 kts 205°
2026-04-14 11:32 64.81661 -164.91037 10441 ft 309 kts 205°
2026-04-14 11:33 64.79756 -164.93029 10316 ft 291 kts 205°
2026-04-14 11:33 64.77953 -164.94913 10195 ft 277 kts 205°
2026-04-14 11:33 64.76211 -164.96732 10076 ft 272 kts 205°
2026-04-14 11:34 64.72721 -165.00376 9191 ft 285 kts 205°
2026-04-14 11:34 64.70931 -165.02234 8913 ft 276 kts 205°
2026-04-14 11:34 64.69226 -165.03998 8583 ft 261 kts 205°
2026-04-14 11:34 64.67586 -165.05696 8074 ft 255 kts 205°
2026-04-14 11:35 64.65970 -165.07365 7515 ft 253 kts 202°
2026-04-14 11:35 64.64246 -165.07851 7102 ft 252 kts 167°
2026-04-14 11:35 64.62738 -165.05920 6675 ft 250 kts 134°
2026-04-14 11:35 64.61659 -165.02759 6306 ft 248 kts 123°
2026-04-14 11:36 64.60657 -164.99510 5946 ft 246 kts 129°
2026-04-14 11:36 64.59317 -164.97074 5570 ft 246 kts 155°
2026-04-14 11:36 64.57699 -164.95844 5187 ft 245 kts 158°
2026-04-14 11:36 64.56271 -164.93750 4808 ft 243 kts 139°
2026-04-14 11:37 64.54992 -164.91207 4458 ft 241 kts 138°
2026-04-14 11:37 64.53720 -164.88664 4102 ft 240 kts 137°
2026-04-14 11:37 64.52753 -164.85598 4038 ft 235 kts 113°
2026-04-14 11:37 64.52072 -164.82114 4018 ft 238 kts 112°
2026-04-14 11:38 64.51397 -164.78610 4009 ft 237 kts 112°
2026-04-14 11:38 64.50723 -164.75119 4006 ft 237 kts 112°
2026-04-14 11:38 64.49992 -164.71688 4002 ft 238 kts 124°
2026-04-14 11:38 64.48787 -164.69076 4013 ft 241 kts 149°
2026-04-14 11:39 64.47211 -164.67858 4019 ft 241 kts 175°
2026-04-14 11:39 64.45575 -164.68263 4012 ft 233 kts 201°
2026-04-14 11:39 64.44252 -164.70144 4017 ft 220 kts 228°
2026-04-14 11:39 64.43370 -164.72950 4007 ft 214 kts 239°
2026-04-14 11:40 64.42577 -164.75819 4009 ft 209 kts 239°
2026-04-14 11:40 64.41818 -164.78655 3994 ft 206 kts 247°
2026-04-14 11:40 64.41631 -164.81845 3964 ft 197 kts 282°
2026-04-14 11:40 64.41913 -164.84937 3980 ft 198 kts 285°
2026-04-14 11:41 64.42253 -164.88039 3997 ft 199 kts 287°
2026-04-14 11:41 64.42737 -164.91001 4005 ft 195 kts 307°
2026-04-14 11:41 64.43789 -164.92930 3993 ft 196 kts 340°
2026-04-14 11:41 64.45125 -164.93154 4016 ft 196 kts 12°
2026-04-14 11:42 64.46294 -164.91585 4011 ft 199 kts 47°
2026-04-14 11:42 64.46876 -164.88680 4021 ft 204 kts 80°
2026-04-14 11:42 64.46684 -164.85413 4016 ft 208 kts 103°
2026-04-14 11:42 64.46279 -164.82191 4007 ft 208 kts 105°
2026-04-14 11:43 64.45852 -164.79011 4010 ft 207 kts 105°
2026-04-14 11:43 64.45429 -164.75824 4003 ft 207 kts 105°
2026-04-14 11:43 64.44878 -164.72758 4008 ft 208 kts 124°
2026-04-14 11:43 64.43716 -164.70735 4004 ft 211 kts 163°
2026-04-14 11:44 64.42274 -164.70758 4004 ft 211 kts 201°
2026-04-14 11:44 64.41148 -164.72783 4020 ft 206 kts 239°
2026-04-14 11:44 64.40762 -164.75846 4003 ft 202 kts 275°
2026-04-14 11:44 64.41037 -164.79042 4007 ft 201 kts 282°
2026-04-14 11:45 64.41346 -164.82178 4008 ft 200 kts 288°
2026-04-14 11:45 64.41770 -164.85229 4008 ft 199 kts 291°
2026-04-14 11:45 64.42238 -164.88245 4002 ft 199 kts 292°
2026-04-14 11:45 64.42714 -164.91249 4008 ft 199 kts 292°
2026-04-14 11:46 64.43193 -164.94254 4003 ft 199 kts 292°
2026-04-14 11:46 64.43670 -164.97261 4005 ft 199 kts 292°
2026-04-14 11:46 64.44154 -165.00306 3864 ft 206 kts 292°
2026-04-14 11:46 64.44647 -165.03421 3596 ft 203 kts 291°
2026-04-14 11:47 64.45126 -165.06452 3321 ft 197 kts 291°
2026-04-14 11:47 64.45596 -165.09431 3066 ft 196 kts 291°
2026-04-14 11:47 64.46061 -165.12379 2803 ft 195 kts 292°
2026-04-14 11:47 64.46518 -165.15284 2543 ft 189 kts 291°
2026-04-14 11:48 64.46961 -165.18102 2298 ft 184 kts 291°
2026-04-14 11:48 64.47390 -165.20842 2049 ft 178 kts 291°
2026-04-14 11:48 64.47807 -165.23501 1814 ft 172 kts 291°
2026-04-14 11:48 64.48200 -165.26014 1606 ft 160 kts 291°
2026-04-14 11:49 64.48579 -165.28437 1392 ft 161 kts 290°
2026-04-14 11:49 64.48958 -165.30867 1178 ft 157 kts 290°
2026-04-14 11:49 64.49313 -165.33157 995 ft 146 kts 290°
2026-04-14 11:49 64.49649 -165.35359 818 ft 144 kts 290°
2026-04-14 11:50 64.49992 -165.37532 619 ft 143 kts 291°
2026-04-14 11:50 64.50333 -165.39701 419 ft 143 kts 290°
2026-04-14 11:50 64.50663 -165.41872 224 ft 142 kts 290°
2026-04-14 11:51 64.51240 -165.45517 47 ft 58 kts 290°
2026-04-14 11:51 64.51309 -165.45955 47 ft 12 kts 298°
2026-04-14 11:51 64.51296 -165.46007 47 ft 6 kts 133°
2026-04-14 11:51 64.51283 -165.45857 47 ft 17 kts 108°
2026-04-14 11:52 64.51229 -165.45521 47 ft 26 kts 110°
2026-04-14 11:52 64.51166 -165.45103 47 ft 28 kts 109°
2026-04-14 11:52 64.51099 -165.44669 47 ft 29 kts 109°
2026-04-14 11:52 64.51041 -165.44290 47 ft 25 kts 110°
2026-04-14 11:53 64.50990 -165.44015 47 ft 15 kts 140°
2026-04-14 11:53 64.50919 -165.44012 47 ft 5 kts 197°
2026-04-14 11:53 64.50894 -165.44030 47 ft 2 kts 196°
2026-04-14 11:53 64.50878 -165.44040 47 ft 3 kts 192°
2026-04-14 11:54 64.50852 -165.43990 47 ft 8 kts 112°
2026-04-14 11:54 64.50823 -165.43889 47 ft 7 kts 164°
2026-04-14 11:54 64.50808 -165.43916 47 ft 1 kts 276°
2026-04-14 11:54 64.50822 -165.43959 47 ft 8 kts 309°
2026-04-14 11:55 64.50851 -165.44096 47 ft 11 kts 290°
2026-04-14 11:55 64.50879 -165.44277 47 ft 11 kts 278°
2026-04-14 11:55 64.50850 -165.44439 47 ft 12 kts 231°
2026-04-14 11:55 64.50815 -165.44446 47 ft 7 kts 66°
2026-04-14 11:56 64.50820 -165.44384 47 ft 0 kts 97°